Back to catalog

SL-14 DEB

AlivePO
NORAD 26001·DEBRIS·🇷🇺 Russia

Launched Sep 28, 1991 from Plesetsk Cosmodrome

Loading…

Next Passes (next 24 hours)

TLE

FreshSource: Space-Track

Epoch: Sep 14, 2026, 12:49 UTC

1 26001U 91068L   26257.53421483  .00000066  00000-0  28923-3 0  9994
2 26001  82.2241 299.4704 0087373 245.8196 183.7745 12.68001045245865

Track SL-14 DEB in real time with AllMySat

Download on the App Store